Home > Weather > Corrientes > Past weeks

Flag for Argentina Past Weather in Corrientes, Corrientes, Argentina — Yesterday and Last 2 Weeks

Now
64 °F

Sunny.


Feels Like: 64 °F
Forecast: 51 / 64 °F
Wind: 14 mph from Southwest

Location: Resistencia Aero.

Current Time: Jul 26, 2016 at 4:52:47 PM

Latest Report: Jul 26, 2016 at 4:00 PM


Visibility: 10 mi

Pressure: 30.09 "Hg

Humidity: 52%

Dew Point: 46 °F

Location of CorrientesLocation

Past Weather in Corrientes — Graph

°F

Corrientes Temperature Yesterday

Maximum temperature yesterday: 86 °F (at 4:00 PM)
Minimum temperature yesterday: 61 °F (at 8:00 AM)
Average temperature yesterday: 72 °F

High & Low Weather Summary for the Past Weeks

 TemperatureHumidityPressure
High86 °F (Jul 25, 4:00 PM)100% (Jul 12, 4:00 AM)30.36 "Hg (Jul 12, 4:00 AM)
Low37 °F (Jul 17, 8:00 AM)31% (Jul 22, 4:00 PM)29.68 "Hg (Jul 11, 3:00 PM)
Average57 °F77%30.05 "Hg
* Reported Jul 11 3:00 PM — Jul 26 3:00 PM, Corrientes, Weather by CustomWeather, © 2016

Note: Actual official high and low records may vary slightly from our data, if they occured in-between our weather recording intervals... More about our weather records

Advertising

Corrientes Weather History for the Previous 24 Hours

Scroll right to see more
 ConditionsComfort  
Time TempWeatherWind HumidityBarometerVisibility
3:00 PM
Tue, Jul 26
64 °FPassing clouds.14 mph52%30.09 "HgN/A
2:00 PM63 °FScattered clouds.14 mph56%30.09 "HgN/A
1:00 PM61 °FScattered clouds.15 mph59%30.12 "HgN/A
12:00 PM57 °FPartly sunny.15 mph72%30.12 "HgN/A
11:00 AM55 °FPartly sunny.14 mph77%30.12 "Hg5 mi
10:00 AM55 °FMostly cloudy.12 mph82%30.09 "Hg5 mi
9:00 AM54 °FMore clouds than sun.8 mph88%30.07 "HgN/A
8:00 AM54 °FThunderstorms. More clouds than sun.10 mph88%30.04 "HgN/A
7:00 AM55 °FMore clouds than sun.14 mph82%29.98 "HgN/A
6:00 AM57 °FMostly cloudy.14 mph88%29.95 "HgN/A
5:00 AM61 °FMostly cloudy.14 mph88%29.92 "HgN/A
4:00 AM61 °FMostly cloudy.16 mph88%29.92 "HgN/A
3:00 AM61 °FMostly cloudy.12 mph88%29.92 "Hg5 mi
2:00 AM63 °FClear.15 mph83%29.89 "Hg5 mi
1:00 AM64 °FPartly cloudy.12 mph83%29.89 "Hg4 mi
12:00 AM66 °FClear.14 mph83%29.86 "Hg4 mi
11:00 PM
Mon, Jul 25
70 °FClear.13 mph78%29.83 "Hg4 mi
10:00 PM68 °FClear.8 mph83%29.80 "Hg4 mi
9:00 PM72 °FClear.No wind73%29.77 "Hg4 mi
8:00 PM75 °FClear.5 mph57%29.74 "Hg4 mi
7:00 PM72 °FClear.5 mph73%29.74 "Hg4 mi
6:00 PM81 °FClear.5 mph51%29.71 "Hg10 mi
5:00 PM84 °FSunny.8 mph43%29.68 "Hg10 mi
4:00 PM86 °FSunny.9 mph38%29.68 "Hg10 mi
Weather by CustomWeather, © 2016

See weather overviewHow to use our weather pages